Time,TemperatureF,DewpointF,PressureIn,WindDirection,WindDirectionDegrees,WindSpeedMPH,WindSpeedGustMPH,Humidity,HourlyPrecipIn,Conditions,Clouds,dailyrainin,SoftwareType,DateUTC
2013-02-03 00:03:00,20.0,18.0,29.65,South,190,0.0,-999.0,90,-99.99,,,-99.99,,2013-02-03 05:03:00,
2013-02-03 00:12:00,20.0,18.0,29.65,South,190,0.0,-999.0,90,-99.99,,,-99.99,,2013-02-03 05:12:00,
2013-02-03 00:22:00,20.0,18.0,29.64,South,190,0.0,-999.0,90,-99.99,,,-99.99,,2013-02-03 05:22:00,
2013-02-03 00:32:00,20.0,18.0,29.63,South,190,0.0,-999.0,90,-99.99,,,-99.99,,2013-02-03 05:32:00,
2013-02-03 00:42:00,20.0,18.0,29.63,South,190,0.0,-999.0,90,-99.99,,,-99.99,,2013-02-03 05:42:00,
2013-02-03 00:52:00,20.0,18.0,29.63,South,190,0.0,-999.0,90,-99.99,,,-99.99,,2013-02-03 05:52:00,
2013-02-03 01:02:00,20.0,18.0,29.62,South,190,0.0,-999.0,90,-99.99,,,-99.99,,2013-02-03 06:02:00,
2013-02-03 01:11:00,20.0,18.0,29.62,South,190,0.0,-999.0,90,-99.99,,,-99.99,,2013-02-03 06:11:00,
2013-02-03 01:21:00,19.0,17.0,29.62,South,190,0.0,-999.0,90,-99.99,,,-99.99,,2013-02-03 06:21:00,
2013-02-03 01:32:00,19.0,17.0,29.61,South,190,0.0,-999.0,90,-99.99,,,-99.99,,2013-02-03 06:32:00,
2013-02-03 01:42:00,19.0,17.0,29.61,South,190,0.0,-999.0,90,-99.99,,,-99.99,,2013-02-03 06:42:00,
2013-02-03 01:52:00,19.0,17.0,29.61,South,190,0.0,-999.0,91,-99.99,,,-99.99,,2013-02-03 06:52:00,
2013-02-03 02:01:00,19.0,17.0,29.60,South,190,0.0,-999.0,91,-99.99,,,-99.99,,2013-02-03 07:01:00,
2013-02-03 02:11:00,19.0,17.0,29.60,South,190,0.0,-999.0,91,-99.99,,,-99.99,,2013-02-03 07:11:00,
2013-02-03 02:21:00,19.0,17.0,29.60,South,190,0.0,-999.0,91,-99.99,,,-99.99,,2013-02-03 07:21:00,
2013-02-03 02:32:00,18.0,16.0,29.59,South,190,0.0,-999.0,91,-99.99,,,-99.99,,2013-02-03 07:32:00,
2013-02-03 02:42:00,18.0,16.0,29.59,South,190,0.0,-999.0,91,-99.99,,,-99.99,,2013-02-03 07:42:00,
2013-02-03 02:52:00,18.0,16.0,29.59,South,190,0.0,-999.0,91,-99.99,,,-99.99,,2013-02-03 07:52:00,
2013-02-03 03:01:00,17.0,15.0,29.58,South,190,0.0,-999.0,91,-99.99,,,-99.99,,2013-02-03 08:01:00,
2013-02-03 03:11:00,17.0,15.0,29.58,South,190,0.0,-999.0,91,-99.99,,,-99.99,,2013-02-03 08:11:00,
2013-02-03 03:22:00,17.0,15.0,29.57,South,190,0.0,-999.0,91,-99.99,,,-99.99,,2013-02-03 08:22:00,
2013-02-03 03:32:00,16.0,14.0,29.57,South,190,0.0,-999.0,91,-99.99,,,-99.99,,2013-02-03 08:32:00,
2013-02-03 03:41:00,16.0,14.0,29.57,South,190,0.0,-999.0,91,-99.99,,,-99.99,,2013-02-03 08:41:00,
2013-02-03 03:52:00,15.0,13.0,29.56,South,190,0.0,-999.0,91,-99.99,,,-99.99,,2013-02-03 08:52:00,
2013-02-03 04:03:00,15.0,13.0,29.56,South,190,0.0,-999.0,91,-99.99,,,-99.99,,2013-02-03 09:03:00,
2013-02-03 04:11:00,15.0,13.0,29.56,South,190,0.0,-999.0,91,-99.99,,,-99.99,,2013-02-03 09:11:00,
2013-02-03 04:22:00,14.0,12.0,29.55,South,190,0.0,-999.0,91,-99.99,,,-99.99,,2013-02-03 09:22:00,
2013-02-03 04:32:00,14.0,12.0,29.55,South,190,0.0,-999.0,91,-99.99,,,-99.99,,2013-02-03 09:32:00,
2013-02-03 04:42:00,14.0,12.0,29.55,South,190,0.0,-999.0,91,-99.99,,,-99.99,,2013-02-03 09:42:00,
2013-02-03 04:52:00,13.0,11.0,29.54,South,190,0.0,-999.0,91,-99.99,,,-99.99,,2013-02-03 09:52:00,
2013-02-03 05:01:00,13.0,11.0,29.54,South,190,0.0,-999.0,91,-99.99,,,-99.99,,2013-02-03 10:01:00,
2013-02-03 05:11:00,13.0,11.0,29.54,South,190,0.0,-999.0,91,-99.99,,,-99.99,,2013-02-03 10:11:00,
2013-02-03 05:21:00,13.0,11.0,29.54,South,190,0.0,-999.0,91,-99.99,,,-99.99,,2013-02-03 10:21:00,
2013-02-03 05:32:00,13.0,11.0,29.54,South,190,0.0,-999.0,91,-99.99,,,-99.99,,2013-02-03 10:32:00,
2013-02-03 05:42:00,13.0,11.0,29.54,South,190,0.0,-999.0,91,-99.99,,,-99.99,,2013-02-03 10:42:00,
2013-02-03 05:53:00,12.0,10.0,29.54,South,190,0.0,-999.0,91,-99.99,,,-99.99,,2013-02-03 10:53:00,
2013-02-03 06:02:00,12.0,10.0,29.53,South,190,0.0,-999.0,91,-99.99,,,-99.99,,2013-02-03 11:02:00,
2013-02-03 06:11:00,12.0,10.0,29.53,South,190,0.0,-999.0,91,-99.99,,,-99.99,,2013-02-03 11:11:00,
2013-02-03 06:22:00,12.0,10.0,29.53,South,190,0.0,-999.0,91,-99.99,,,-99.99,,2013-02-03 11:22:00,
2013-02-03 06:32:00,12.0,10.0,29.53,South,190,0.0,-999.0,91,-99.99,,,-99.99,,2013-02-03 11:32:00,
2013-02-03 06:42:00,12.0,10.0,29.53,South,190,0.0,-999.0,91,-99.99,,,-99.99,,2013-02-03 11:42:00,
2013-02-03 06:52:00,11.0,9.0,29.53,South,190,0.0,-999.0,91,-99.99,,,-99.99,,2013-02-03 11:52:00,
2013-02-03 07:02:00,11.0,9.0,29.53,South,190,0.0,-999.0,91,-99.99,,,-99.99,,2013-02-03 12:02:00,
2013-02-03 07:12:00,11.0,9.0,29.53,South,190,0.0,-999.0,91,-99.99,,,-99.99,,2013-02-03 12:12:00,
2013-02-03 07:22:00,11.0,9.0,29.53,South,190,0.0,-999.0,91,-99.99,,,-99.99,,2013-02-03 12:22:00,
2013-02-03 07:32:00,11.0,9.0,29.54,South,190,0.0,-999.0,91,-99.99,,,-99.99,,2013-02-03 12:32:00,
2013-02-03 07:42:00,11.0,9.0,29.54,South,190,0.0,-999.0,91,-99.99,,,-99.99,,2013-02-03 12:42:00,
2013-02-03 07:53:00,11.0,9.0,29.54,South,190,0.0,-999.0,92,-99.99,,,-99.99,,2013-02-03 12:53:00,
2013-02-03 08:03:00,12.0,10.0,29.55,South,190,0.0,-999.0,92,-99.99,,,-99.99,,2013-02-03 13:03:00,
2013-02-03 08:11:00,12.0,10.0,29.55,South,190,0.0,-999.0,92,-99.99,,,-99.99,,2013-02-03 13:11:00,
2013-02-03 08:22:00,13.0,11.0,29.55,South,190,0.0,-999.0,93,-99.99,,,-99.99,,2013-02-03 13:22:00,
2013-02-03 08:32:00,14.0,13.0,29.55,South,190,0.0,-999.0,94,-99.99,,,-99.99,,2013-02-03 13:32:00,
2013-02-03 08:42:00,14.0,13.0,29.55,South,190,0.0,-999.0,94,-99.99,,,-99.99,,2013-02-03 13:42:00,
2013-02-03 08:52:00,16.0,15.0,29.55,South,190,0.0,-999.0,94,-99.99,,,-99.99,,2013-02-03 13:52:00,
2013-02-03 09:02:00,17.0,15.0,29.54,South,190,0.0,-999.0,93,-99.99,,,-99.99,,2013-02-03 14:02:00,
2013-02-03 09:12:00,17.0,15.0,29.54,South,190,0.0,-999.0,93,-99.99,,,-99.99,,2013-02-03 14:12:00,
2013-02-03 09:22:00,17.0,15.0,29.54,South,190,1.0,-999.0,91,-99.99,,,-99.99,,2013-02-03 14:22:00,
2013-02-03 09:32:00,18.0,16.0,29.54,NNW,342,1.0,-999.0,91,-99.99,,,-99.99,,2013-02-03 14:32:00,
2013-02-03 09:42:00,18.0,16.0,29.54,NNW,342,1.0,-999.0,91,-99.99,,,-99.99,,2013-02-03 14:42:00,
2013-02-03 09:52:00,19.0,17.0,29.54,NNW,342,1.0,-999.0,90,-99.99,,,-99.99,,2013-02-03 14:52:00,
2013-02-03 10:03:00,20.0,17.0,29.53,NNW,333,1.0,-999.0,87,-99.99,,,-99.99,,2013-02-03 15:03:00,
2013-02-03 10:11:00,20.0,17.0,29.53,NNW,333,1.0,-999.0,87,-99.99,,,-99.99,,2013-02-03 15:11:00,
2013-02-03 10:22:00,21.0,17.0,29.53,NNW,333,1.0,-999.0,85,-99.99,,,-99.99,,2013-02-03 15:22:00,
2013-02-03 10:33:00,21.0,16.0,29.52,NNW,333,1.0,-999.0,81,-99.99,,,-99.99,,2013-02-03 15:33:00,
2013-02-03 10:42:00,21.0,16.0,29.52,NNW,333,1.0,-999.0,81,-99.99,,,-99.99,,2013-02-03 15:42:00,
2013-02-03 10:52:00,22.0,17.0,29.52,NW,322,2.0,-999.0,80,-99.99,,,-99.99,,2013-02-03 15:52:00,
2013-02-03 11:03:00,23.0,17.0,29.51,NW,323,1.0,-999.0,78,-99.99,,,-99.99,,2013-02-03 16:03:00,
2013-02-03 11:11:00,23.0,17.0,29.51,NW,323,1.0,-999.0,78,-99.99,,,-99.99,,2013-02-03 16:11:00,
2013-02-03 11:22:00,24.0,18.0,29.51,NW,323,1.0,-999.0,78,-99.99,,,-99.99,,2013-02-03 16:22:00,
2013-02-03 11:33:00,24.0,18.0,29.49,WNW,293,1.0,-999.0,76,-99.99,,,-99.99,,2013-02-03 16:33:00,
2013-02-03 11:42:00,24.0,18.0,29.49,WNW,293,1.0,-999.0,76,-99.99,,,-99.99,,2013-02-03 16:42:00,
2013-02-03 11:52:00,24.0,17.0,29.49,NW,315,2.0,-999.0,74,-99.99,,,-99.99,,2013-02-03 16:52:00,
2013-02-03 12:02:00,25.0,18.0,29.47,West,275,0.0,-999.0,73,-99.99,,,-99.99,,2013-02-03 17:02:00,
2013-02-03 12:11:00,25.0,18.0,29.47,West,275,0.0,-999.0,73,-99.99,,,-99.99,,2013-02-03 17:11:00,
2013-02-03 12:22:00,25.0,17.0,29.47,NW,311,1.0,-999.0,70,-99.99,,,-99.99,,2013-02-03 17:22:00,
2013-02-03 12:32:00,26.0,18.0,29.45,NNE,26,1.0,-999.0,70,-99.99,,,-99.99,,2013-02-03 17:32:00,
2013-02-03 12:42:00,26.0,18.0,29.45,NNE,26,1.0,-999.0,70,-99.99,,,-99.99,,2013-02-03 17:42:00,
2013-02-03 12:52:00,26.0,17.0,29.44,NW,308,1.0,-999.0,68,-99.99,,,-99.99,,2013-02-03 17:52:00,
2013-02-03 13:03:00,26.0,16.0,29.43,NNW,336,1.0,-999.0,66,-99.99,,,-99.99,,2013-02-03 18:03:00,
2013-02-03 13:12:00,26.0,16.0,29.43,NNW,336,1.0,-999.0,66,-99.99,,,-99.99,,2013-02-03 18:12:00,
2013-02-03 13:23:00,27.0,16.0,29.43,NW,312,2.0,-999.0,62,-99.99,,,-99.99,,2013-02-03 18:23:00,
2013-02-03 13:33:00,27.0,16.0,29.42,WNW,301,2.0,-999.0,64,-99.99,,,-99.99,,2013-02-03 18:33:00,
2013-02-03 13:42:00,27.0,16.0,29.42,WNW,301,2.0,-999.0,64,-99.99,,,-99.99,,2013-02-03 18:42:00,
2013-02-03 13:52:00,27.0,16.0,29.41,NW,319,1.0,-999.0,63,-99.99,,,-99.99,,2013-02-03 18:52:00,
2013-02-03 14:02:00,27.0,16.0,29.40,SSE,161,1.0,-999.0,64,-99.99,,,-99.99,,2013-02-03 19:02:00,
2013-02-03 14:11:00,27.0,16.0,29.40,SSE,161,1.0,-999.0,64,-99.99,,,-99.99,,2013-02-03 19:11:00,
2013-02-03 14:22:00,28.0,17.0,29.39,SW,232,2.0,-999.0,63,-99.99,,,-99.99,,2013-02-03 19:22:00,
2013-02-03 14:32:00,28.0,16.0,29.39,SSE,159,1.0,-999.0,59,-99.99,,,-99.99,,2013-02-03 19:32:00,
2013-02-03 14:42:00,28.0,16.0,29.39,SSE,159,1.0,-999.0,59,-99.99,,,-99.99,,2013-02-03 19:42:00,
2013-02-03 14:52:00,29.0,16.0,29.39,South,182,1.0,-999.0,58,-99.99,,,-99.99,,2013-02-03 19:52:00,
2013-02-03 15:02:00,30.0,16.0,29.39,SSE,161,2.0,-999.0,56,-99.99,,,-99.99,,2013-02-03 20:02:00,
2013-02-03 15:12:00,30.0,16.0,29.39,SSE,161,2.0,-999.0,56,-99.99,,,-99.99,,2013-02-03 20:12:00,
2013-02-03 15:22:00,28.0,15.0,29.39,NW,315,1.0,-999.0,57,-99.99,,,-99.99,,2013-02-03 20:22:00,
2013-02-03 15:33:00,28.0,16.0,29.38,NW,312,2.0,-999.0,59,-99.99,,,-99.99,,2013-02-03 20:33:00,
2013-02-03 15:42:00,28.0,16.0,29.38,NW,312,2.0,-999.0,59,-99.99,,,-99.99,,2013-02-03 20:42:00,
2013-02-03 15:52:00,28.0,17.0,29.39,NW,304,1.0,-999.0,63,-99.99,,,-99.99,,2013-02-03 20:52:00,
2013-02-03 16:03:00,27.0,16.0,29.38,NW,314,2.0,-999.0,62,-99.99,,,-99.99,,2013-02-03 21:03:00,
2013-02-03 16:11:00,27.0,16.0,29.38,NW,314,2.0,-999.0,62,-99.99,,,-99.99,,2013-02-03 21:11:00,
2013-02-03 16:21:00,27.0,16.0,29.38,NW,314,0.0,-999.0,63,-99.99,,,-99.99,,2013-02-03 21:21:00,
2013-02-03 16:32:00,27.0,16.0,29.38,NW,313,1.0,-999.0,64,-99.99,,,-99.99,,2013-02-03 21:32:00,
2013-02-03 16:42:00,27.0,16.0,29.38,NW,313,1.0,-999.0,64,-99.99,,,-99.99,,2013-02-03 21:42:00,
2013-02-03 16:52:00,27.0,16.0,29.38,NW,314,1.0,-999.0,63,-99.99,,,-99.99,,2013-02-03 21:52:00,
2013-02-03 17:01:00,26.0,16.0,29.38,NW,314,1.0,-999.0,65,-99.99,,,-99.99,,2013-02-03 22:01:00,
2013-02-03 17:11:00,26.0,16.0,29.38,NW,314,1.0,-999.0,65,-99.99,,,-99.99,,2013-02-03 22:11:00,
2013-02-03 17:21:00,26.0,17.0,29.37,NW,314,0.0,-999.0,67,-99.99,,,-99.99,,2013-02-03 22:21:00,
2013-02-03 17:32:00,25.0,16.0,29.37,NW,314,0.0,-999.0,67,-99.99,,,-99.99,,2013-02-03 22:32:00,
2013-02-03 17:42:00,25.0,16.0,29.37,NW,314,0.0,-999.0,67,-99.99,,,-99.99,,2013-02-03 22:42:00,
2013-02-03 17:52:00,24.0,16.0,29.37,NW,313,0.0,-999.0,70,-99.99,,,-99.99,,2013-02-03 22:52:00,
2013-02-03 18:01:00,23.0,16.0,29.37,NW,314,0.0,-999.0,74,-99.99,,,-99.99,,2013-02-03 23:01:00,
2013-02-03 18:12:00,23.0,16.0,29.37,NW,314,0.0,-999.0,74,-99.99,,,-99.99,,2013-02-03 23:12:00,
2013-02-03 18:22:00,22.0,16.0,29.37,NW,314,0.0,-999.0,76,-99.99,,,-99.99,,2013-02-03 23:22:00,
2013-02-03 18:32:00,21.0,15.0,29.37,NW,314,0.0,-999.0,77,-99.99,,,-99.99,,2013-02-03 23:32:00,
2013-02-03 18:42:00,21.0,15.0,29.37,NW,314,0.0,-999.0,77,-99.99,,,-99.99,,2013-02-03 23:42:00,
2013-02-03 18:52:00,21.0,15.0,29.37,NW,314,0.0,-999.0,77,-99.99,,,-99.99,,2013-02-03 23:52:00,
2013-02-03 19:02:00,19.0,14.0,29.36,NW,314,0.0,-999.0,81,-99.99,,,-99.99,,2013-02-04 00:02:00,
2013-02-03 19:11:00,19.0,14.0,29.36,NW,314,0.0,-999.0,81,-99.99,,,-99.99,,2013-02-04 00:11:00,
2013-02-03 19:22:00,19.0,14.0,29.37,NW,314,0.0,-999.0,82,-99.99,,,-99.99,,2013-02-04 00:22:00,
2013-02-03 19:32:00,19.0,15.0,29.37,NW,313,0.0,-999.0,83,-99.99,,,-99.99,,2013-02-04 00:32:00,
2013-02-03 19:42:00,19.0,15.0,29.37,NW,313,0.0,-999.0,83,-99.99,,,-99.99,,2013-02-04 00:42:00,
2013-02-03 19:52:00,19.0,15.0,29.38,NW,313,0.0,-999.0,84,-99.99,,,-99.99,,2013-02-04 00:52:00,
2013-02-03 20:01:00,19.0,15.0,29.38,NW,314,0.0,-999.0,84,-99.99,,,-99.99,,2013-02-04 01:01:00,
2013-02-03 20:11:00,19.0,15.0,29.38,NW,314,0.0,-999.0,84,-99.99,,,-99.99,,2013-02-04 01:11:00,
2013-02-03 20:21:00,19.0,15.0,29.38,South,188,0.0,-999.0,84,-99.99,,,-99.99,,2013-02-04 01:21:00,
2013-02-03 20:32:00,19.0,15.0,29.38,South,189,0.0,-999.0,83,-99.99,,,-99.99,,2013-02-04 01:32:00,
2013-02-03 20:42:00,19.0,15.0,29.38,South,189,0.0,-999.0,83,-99.99,,,-99.99,,2013-02-04 01:42:00,
2013-02-03 20:52:00,20.0,16.0,29.38,South,189,0.0,-999.0,83,-99.99,,,-99.99,,2013-02-04 01:52:00,
2013-02-03 21:02:00,20.0,16.0,29.39,South,189,0.0,-999.0,84,-99.99,,,-99.99,,2013-02-04 02:02:00,
2013-02-03 21:11:00,20.0,16.0,29.39,South,189,0.0,-999.0,84,-99.99,,,-99.99,,2013-02-04 02:11:00,
2013-02-03 21:21:00,20.0,16.0,29.39,South,189,0.0,-999.0,84,-99.99,,,-99.99,,2013-02-04 02:21:00,
2013-02-03 21:32:00,20.0,16.0,29.39,South,189,0.0,-999.0,84,-99.99,,,-99.99,,2013-02-04 02:32:00,
2013-02-03 21:42:00,20.0,16.0,29.39,South,189,0.0,-999.0,84,-99.99,,,-99.99,,2013-02-04 02:42:00,
2013-02-03 21:52:00,19.0,15.0,29.39,South,189,0.0,-999.0,85,-99.99,,,-99.99,,2013-02-04 02:52:00,
2013-02-03 22:02:00,19.0,16.0,29.39,South,189,0.0,-999.0,87,-99.99,,,-99.99,,2013-02-04 03:02:00,
2013-02-03 22:11:00,19.0,16.0,29.39,South,189,0.0,-999.0,87,-99.99,,,-99.99,,2013-02-04 03:11:00,
2013-02-03 22:21:00,19.0,16.0,29.38,South,189,0.0,-999.0,86,-99.99,,,-99.99,,2013-02-04 03:21:00,
2013-02-03 22:32:00,19.0,16.0,29.38,South,189,0.0,-999.0,86,-99.99,,,-99.99,,2013-02-04 03:32:00,
2013-02-03 22:42:00,19.0,16.0,29.38,South,189,0.0,-999.0,86,-99.99,,,-99.99,,2013-02-04 03:42:00,
2013-02-03 22:52:00,18.0,15.0,29.37,South,189,0.0,-999.0,87,-99.99,,,-99.99,,2013-02-04 03:52:00,
2013-02-03 23:01:00,18.0,15.0,29.37,South,189,0.0,-999.0,88,-99.99,,,-99.99,,2013-02-04 04:01:00,
2013-02-03 23:11:00,18.0,15.0,29.37,South,189,0.0,-999.0,88,-99.99,,,-99.99,,2013-02-04 04:11:00,
2013-02-03 23:21:00,18.0,15.0,29.37,South,189,0.0,-999.0,88,-99.99,,,-99.99,,2013-02-04 04:21:00,
2013-02-03 23:32:00,19.0,16.0,29.37,South,189,0.0,-999.0,89,-99.99,,,-99.99,,2013-02-04 04:32:00,
2013-02-03 23:42:00,19.0,16.0,29.37,South,189,0.0,-999.0,89,-99.99,,,-99.99,,2013-02-04 04:42:00,
2013-02-03 23:52:00,20.0,17.0,29.37,South,189,0.0,-999.0,87,-99.99,,,-99.99,,2013-02-04 04:52:00,